Content
SEND FEEDBACK

Daily
Averages
Monthly
Summary
United States of America

POTTS JUNCTION, GUAM


Home > North America > United States > Guam
Elevation: 110 meters     Latitude: 13 33N     Longitude: 144 50E

WEATHER
 
SELECT A DAY
Number of Records: 213,810;   Date Range: 1/1/95 - 10/21/14
 
SHARE

PRINT THIS DATA

[ ← Previous Day ]
WEATHER ALMANAC - 2 JULY, 2014
[ Next Day → ]
[ °F ]   °C
Weather ElementAverageHighLow
Temperature29.8 °C32.2 °C (12:54 pm)26.7 °C (2:54 am)
Dewpoint25.9 °C28 °C (12:10 pm)25 °C (2:54 am)
Humidity79.7 %91 % (1:54 am)70 % (12:54 pm)
Barometer1007.8 hPa1009.5 hPa (9:22 am)1005.4 hPa (6:54 pm)
Wind Speed13.5 km/h22.2 km/h (1:18 pm)
Wind Gust33.3 km/h (12:01 pm)
Weather ElementAverage
Visibility15.4 km
Wind DirectionENE (65.9 °)

Weather ElementTotal
Precipitation7.62 mm
Cooling Degree Days11.2 (Base 18.3)
Growing Degree Days19.5 (Base 10)
Averaged from 39 records on 2 July, 2014
WEATHER CONDITIONS BREAKOUT
WIND DIRECTION BREAKOUT
WEATHER BY HOUR - 2 JULY, 2014
[ °F ]   °C
Local TimeTemperatureDewpointHumidityBarometerVisibilityWind DirectionWind SpeedGust SpeedPrecipitationEventsConditions
1:54 AM27.2 °C25.6 °C91 %1008.5 hPa16.1 kmCalmClear
2:54 AM26.7 °C25 °C90 %1008.1 hPa16.1 kmCalmPartly Cloudy
3:54 AM27.2 °C25 °C88 %1008.1 hPa16.1 kmCalmClear
4:54 AM26.7 °C25 °C90 %1007.8 hPa16.1 kmNE (40°)9.3 km/hClear
5:54 AM27.2 °C25.6 °C91 %1007.8 hPa16.1 kmCalmClear
6:54 AM28.3 °C25.6 °C85 %1007.8 hPa16.1 kmCalmClear
7:54 AM29.4 °C26.1 °C82 %1009.1 hPa16.1 kmNE (40°)11.1 km/hClear
8:54 AM30.6 °C25.6 °C74 %1008.5 hPa16.1 kmNNE (30°)11.1 km/hMostly Cloudy
9:22 AM30 °C26 °C79 %1009.5 hPa16.1 kmNNE (20°)11.1 km/hMostly Cloudy
9:39 AM31 °C26 °C75 %1009.5 hPa16.1 kmNE (40°)11.1 km/hScattered Clouds
9:54 AM31.1 °C26.1 °C75 %1008.8 hPa16.1 kmNorth (350°)11.1 km/hMostly Cloudy
10:21 AM29 °C26 °C84 %1009.1 hPa9.7 kmNorth (10°)9.3 km/h25.9 km/h0.51 mmRainLight Rain
10:47 AM31 °C27 °C79 %1009.1 hPa16.1 kmEast (80°)14.8 km/h0.76 mmMostly Cloudy
10:54 AM30.6 °C26.7 °C80 %1008.5 hPa16.1 kmENE (70°)14.8 km/h0.76 mmScattered Clouds
11:03 AM30 °C26 °C79 %1008.8 hPa16.1 kmNNE (20°)13 km/hThunderstormThunderstorm
11:24 AM30 °C27 °C84 %1008.8 hPa16.1 kmNNW (340°)11.1 km/h0 mmScattered Clouds
11:54 AM29.4 °C26.7 °C85 %1007.8 hPa16.1 kmNorth (360°)20.4 km/h31.5 km/h0 mmScattered Clouds
12:01 PM29 °C27 °C89 %1008.5 hPa4 kmNorth (10°)20.4 km/h33.3 km/h0.25 mmRainRain
12:10 PM30 °C28 °C89 %1008.1 hPa8 kmNNE (30°)18.5 km/h1.78 mmRainLight Rain
12:31 PM31 °C26 °C75 %1008.1 hPa16.1 kmNE (40°)14.8 km/h1.78 mmMostly Cloudy
12:54 PM32.2 °C26.1 °C70 %1007.1 hPa16.1 kmENE (60°)13 km/h1.78 mmMostly Cloudy
1:09 PM31 °C26 °C75 %1007.8 hPa16.1 kmENE (60°)18.5 km/hMostly Cloudy
1:18 PM31 °C26 °C75 %1007.8 hPa16.1 kmENE (70°)22.2 km/hMostly Cloudy
1:27 PM31 °C26 °C75 %1007.8 hPa16.1 kmENE (60°)18.5 km/hMostly Cloudy
1:39 PM31 °C26 °C75 %1007.8 hPa16.1 kmNE (50°)18.5 km/hScattered Clouds
1:52 PM32 °C26 °C70 %1007.5 hPa16.1 kmENE (60°)18.5 km/hMostly Cloudy
1:54 PM31.7 °C26.1 °C72 %1006.8 hPa16.1 kmENE (60°)18.5 km/hMostly Cloudy
2:02 PM31 °C26 °C75 %1007.5 hPa16.1 kmNE (40°)18.5 km/hMostly Cloudy
2:54 PM30.6 °C25.6 °C74 %1006.1 hPa16.1 kmNNE (30°)20.4 km/hMostly Cloudy
3:03 PM31 °C26 °C75 %1006.8 hPa16.1 kmNNE (30°)22.2 km/hPartly Cloudy
3:54 PM30.6 °C25.6 °C74 %1005.8 hPa16.1 kmENE (70°)16.7 km/hPartly Cloudy
4:54 PM31.1 °C25 °C70 %1005.8 hPa16.1 kmENE (70°)16.7 km/hPartly Cloudy
5:54 PM30 °C25.6 °C77 %1005.8 hPa16.1 kmNE (50°)16.7 km/hScattered Clouds
6:54 PM28.9 °C25.6 °C82 %1005.4 hPa16.1 kmNE (40°)13 km/hPartly Cloudy
7:54 PM28.9 °C25.6 °C82 %1006.4 hPa16.1 kmENE (70°)13 km/hPartly Cloudy
8:54 PM28.9 °C25.6 °C82 %1006.4 hPa16.1 kmENE (70°)16.7 km/hPartly Cloudy
9:54 PM28.9 °C26.1 °C85 %1006.8 hPa16.1 kmENE (60°)13 km/h0 mmPartly Cloudy
10:54 PM28.9 °C25 °C79 %1006.8 hPa16.1 kmENE (70°)14.8 km/hPartly Cloudy
11:54 PM28.9 °C25 °C79 %1006.1 hPa16.1 kmENE (70°)13 km/hPartly Cloudy
Hourly data recorded from PGUM, located 0 kilometers away from Potts Junction, Guam







STORIES FROM OUR PARTNERS